Regional Weather Roundup
Issued by NWS Albany, NY

Home | Current Version | Previous Version | Text Only | Print | Product List | Glossary On
Versions: 1 2 3 4 5 6 7 8 9 10 11 12 13 14 15 16 17 18 19 20 21 22 23 24 25 26 27 28 29 30 31 32 33 34 35 36 37 38 39 40 41 42 43 44 45 46 47 48 49 50
000
ASUS41 KALY 270410
RWRALY

NEW YORK STATE HOURLY WEATHER ROUNDUP
NATIONAL WEATHER SERVICE ALBANY NY
1100 PM EST THU FEB 26 2015

NOTE: "FAIR" INDICATES FEW OR NO CLOUDS BELOW 12,000 FEET WITH NO
SIGNIFICANT WEATHER AND/OR NO OBSTRUCTIONS TO VISIBILITY.

NYZ032-033-038>043-046>054-057>066-NYZ062>081-270500-
EAST


CITY           SKY/WX    TMP DP  RH WIND       PRES   REMARKS
ALBANY         FLURRIES  12  -2  53 N10       30.17R WCI  -1
GLENS FALLS    CLOUDY     9  -6  50 NE5       30.17S WCI   1
POUGHKEEPSIE   MOCLDY    15   5  64 CALM      30.14R
NEWBURGH       CLOUDY    18  10  73 CALM      30.12R
MONTGOMERY     PTCLDY    10   5  80 CALM      30.12R
WHITE PLAINS   PTCLDY    17   5  59 NW7       30.10S WCI   8
ISLIP          MOCLDY    22  13  68 NW6       30.11R WCI  14
NEW YORK CITY  MOCLDY    23  11  60 N5        30.14S WCI  17
CENTRAL PARK   PTCLDY    22   9  57 VRB3      30.15S
$$

NYZ005>009-017-018-044>046-055-056-270500-
CENTRAL


CITY           SKY/WX    TMP DP  RH WIND       PRES   REMARKS
FULTON         CLOUDY     5  -1  76 CALM      30.22R
SYRACUSE       FLURRIES  10   2  71 W7        30.23R WCI  -1
ROME           MOCLDY     7  -1  70 N7        30.21R WCI  -5
ELMIRA         LGT SNOW  10   4  76 NE6       30.17S WCI   0
BINGHAMTON     LGT SNOW   8   1  73 NW7       30.07R WCI  -3
MONTICELLO     CLEAR     12   7  79 NW8       30.05R WCI   1
$$

NYZ026>034-041>043-270500-
NORTH


CITY           SKY/WX    TMP DP  RH WIND       PRES   REMARKS
WATERTOWN      PTCLDY    -6 -13  71 E3        30.23R
FORT DRUM      NOT AVBL
MASSENA        PTCLDY    -5 -13  68 S3        30.23S
SARANAC LAKE   CLEAR     -7 -13  75 CALM      30.04R
PLATTSBURGH    PTCLDY     0  -7  72 CALM      30.20R
$$

NYZ001>004-010>016-019>021-270500-
WEST


CITY           SKY/WX    TMP DP  RH WIND       PRES   REMARKS
NIAGARA FALLS  FLURRIES  10   5  80 NW8       30.24R WCI  -2
BUFFALO        FLURRIES  10   5  80 SW5       30.22R WCI   2
DUNKIRK        LGT SNOW   9   7  92 NW3       30.24R FOG
JAMESTOWN      MOCLDY     7   3  85 N7        30.11R WCI  -5
WELLSVILLE     FLURRIES   5   1  83 N3        30.06F
ROCHESTER      FLURRIES   9   5  84 W6        30.22F WCI  -1
PENN YAN       LGT SNOW   9   4  80 CALM      30.18S
$$

             KEY
       WCI = WIND CHILL INDEX
       VSB = VISIBILITY
       HX  = HEAT INDEX
$$



USA.gov is the U.S. government's official web portal to all federal, state and local government web resources and services.